Location: Kitchener
(43.4500°N, 80.5000°W)
Time: 04:31:40
(UTC-04:00)

Daily predictions for brighter satellites

Satellite Brightness Start Highest point End
(mag) Time Altitude Azimuth Time Altitude Azimuth Time Altitude Azimuth
Cosmos 2227 Rocket 4.5 02:52:29 19° NNE 02:52:29 19° NNE 02:54:03 10° NNE
CZ-4C R/B 4.0 03:17:53 28° NNE 03:17:53 28° NNE 03:20:48 10° NNE
CZ-2D R/B 4.0 03:22:52 10° NNE 03:25:05 25° NNE 03:25:05 25° NNE
Cosmos 2297 Rocket 4.0 03:34:24 24° N 03:34:24 24° N 03:36:48 10° NNE
SL-16 R/B 4.1 03:50:33 25° NNW 03:50:33 25° NNW 03:52:57 10° NNW
ARIANE 5 R/B 4.2 03:42:25 10° NNE 03:44:58 29° NNE 03:44:58 29° NNE
ADEOS Rocket 4.4 03:46:33 10° N 03:50:02 30° NNW 03:50:02 30° NNW
Cosmos 1655 Rocket 4.1 04:08:40 10° N 04:14:08 68° N 04:14:08 68° N
ADEOS II 3.8 04:10:57 10° NE 04:15:30 29° E 04:17:46 21° SE
DELTA 2 R/B (1) 4.4 04:21:10 42° ESE 04:21:10 42° ESE 04:25:03 10° E
Lacrosse 5 rocket 4.0 04:23:42 12° N 04:23:42 12° N 04:24:33 10° NNE
Cosmos 407 Rocket 4.5 04:24:55 39° N 04:24:55 39° N 04:28:29 10° NNE
ASTEX 1 4.3 04:24:22 10° NNE 04:29:07 44° E 04:30:23 37° SE
Cosmos 2227 4.4 04:31:48 60° NNW 04:31:48 60° NNW 04:36:40 10° NNE
Resurs 1-4 Rocket 3.4 04:27:24 10° N 04:30:23 29° NNW 04:30:23 29° NNW
Cosmos 1943 3.4 04:26:45 10° NNW 04:32:28 71° ENE 04:38:07 10° SSE
Cosmos 1607 4.4 04:31:09 46° SSE 04:32:29 55° ESE 04:38:40 10° NE
Cosmos 2227 Rocket 4.2 04:34:18 15° NNW 04:34:18 15° NNW 04:36:40 10° N
Atlas Centaur 2 3.9 04:39:52 20° SSE 04:39:52 20° SSE 04:42:49 10° SE
Cosmos 2263 Rocket 2.6 04:40:13 46° SSE 04:41:36 59° ESE 04:47:12 10° NNE
Cosmos 2279 Rocket 4.1 04:45:59 56° WNW 04:45:59 56° WNW 04:51:50 10° N
CZ-4B R/B 4.5 04:45:18 10° NNE 04:49:01 32° E 04:50:33 24° SE
Cosmos 1741 Rocket 4.2 04:51:01 49° SSE 04:52:18 67° ESE 04:57:32 10° NNE
Cosmos 1975 Rocket 3.3 04:53:21 60° SE 04:53:52 67° E 04:58:15 10° NNE
ADEOS 4.5 04:50:03 10° N 04:53:45 34° NW 04:53:45 34° NW
SL-24 DEB 4.2 04:52:26 10° N 04:57:15 85° E 04:58:12 58° S
Cosmos 1140 Rocket 3.6 04:58:10 57° WNW 04:58:10 57° WNW 05:03:14 10° NNE
Gbstr 26 Del rocket 4.4 04:53:51 25° WNW 04:58:53 90° SSW 05:07:05 10° SE
Cosmos 1437 Rocket 2.8 04:59:55 10° N 05:03:52 79° E 05:03:55 79° E
ATLAS 5 CENTAUR R/B 4.5 04:59:25 10° NNW 05:04:01 24° NE 05:08:59 10° E
MOS 1-B 4.4 04:58:14 10° NNE 05:04:03 79° ESE 05:07:35 25° S
CZ-4C R/B 4.0 05:03:04 17° NW 05:04:37 19° NNW 05:09:02 10° NNE
CZ-2D R/B 3.7 05:03:53 10° NNW 05:06:24 19° NW 05:06:24 19° NW
Cosmos 1850 Rocket 3.9 05:11:30 45° SSW 05:13:09 78° WNW 05:18:30 10° NNE
Cosmos 1812 4.1 05:16:15 28° NNW 05:16:15 28° NNW 05:18:26 10° N
CZ-4B R/B 3.9 05:14:35 10° NNE 05:19:44 50° E 05:24:54 10° S
Cosmos 614 Rocket 4.4 05:22:57 38° WNW 05:23:28 39° WNW 05:28:17 10° N
ARIANE 5 R/B 4.3 05:22:54 10° NNW 05:25:18 16° NW 05:25:18 16° NW
BREEZE-M DEB (TANK) 3.3 05:27:18 16° WNW 05:31:54 62° NNE 05:34:37 10° E
Cosmos 332 Rocket 3.6 05:28:03 10° NNW 05:32:53 78° WSW 05:37:39 10° SSE
Cosmos 371 Rocket 3.2 05:32:42 10° NNW 05:37:37 83° WSW 05:42:27 10° SSE
Cosmos 1570 Rocket 4.2 05:34:03 10° NNW 05:39:06 46° WSW 05:44:08 10° S
Cosmos 220 Rocket 4.4 05:39:38 36° W 05:40:40 42° WNW 05:44:49 10° N
Okean O Rocket 1.5 05:39:10 10° N 05:43:32 77° WNW 05:47:42 11° SSW
BREEZE-M R/B 4.1 05:42:05 28° SSW 05:43:39 62° SE 05:52:59 10° ENE
Nadezhda 2 Rocket 4.4 05:38:20 10° NNW 05:44:40 68° W 05:50:52 10° S
Abrixas rocket 2.9 05:44:49 34° WNW 05:45:41 43° NNW 05:48:49 10° ENE
Cosmos 2208 Rocket 4.3 05:41:30 10° NNW 05:46:31 44° WSW 05:51:25 10° S
CZ-2C R/B 4.1 05:43:50 10° SSE 05:48:29 71° ENE 05:53:15 10° N
USA 116 4.3 05:47:30 10° SSE 05:50:35 45° ENE 05:53:34 10° N
COSMOS 2406 4.1 05:45:17 10° NNW 05:50:56 53° ENE 05:56:34 10° SE
ADEOS II 2.6 05:50:27 10° N 05:55:16 38° WNW 05:58:42 18° SW
IRS-1C Rocket 4.1 05:50:20 10° NNE 05:55:39 87° WNW 06:00:56 10° SSW
Cosmos 1975 3.5 05:52:28 10° NNW 05:56:08 32° W 05:59:46 10° SSW
Meteor 2-11 Rocket 4.4 05:50:50 10° S 05:56:55 84° W 06:03:02 10° N
CZ-4B DEB 4.1 05:52:55 10° N 05:58:21 71° WNW 06:03:46 10° SSW
ATLAS 3B R/B 2.9 05:52:14 10° SSW 05:59:40 85° ESE 06:06:49 10° NE
EO 1 Del DPAF 4.0 05:57:21 10° SSE 06:01:05 55° ENE 06:04:51 10° N
Lacrosse 5 rocket 3.8 06:01:55 10° NNW 06:03:18 12° N 06:04:40 10° NNE
DELTA 2 R/B (1) 3.9 06:01:57 19° W 06:05:42 50° SSW 06:11:04 10° ESE
Cosmos 1814 Rocket 3.9 06:01:32 10° NNW 06:06:42 78° WSW 06:11:53 10° SSE
Meteor 1-31 Rocket 2.7 06:03:23 10° N 06:07:17 84° WNW 06:11:08 10° SSW
COSMO-SKYMED 1 3.9 06:04:13 10° SE 06:08:19 44° ENE 06:12:28 10° N
Cosmos 1666 2.8 06:04:48 10° NNW 06:08:27 48° W 06:12:06 10° SSW
Landsat 4 3.8 06:04:48 10° S 06:08:33 56° W 06:12:20 10° NNW
Tiangong 1 2.1 06:09:36 20° SW 06:10:13 22° SSW 06:12:23 10° SSE
SL-8 R/B 4.0 06:09:12 17° W 06:12:47 59° NNW 06:17:32 10° ENE
Cosmos 1844 Rocket 2.9 06:11:16 10° SSW 06:16:55 76° ESE 06:22:36 10° NNE
Meteor 1-23 Rocket 4.5 06:12:57 10° S 06:18:29 75° E 06:24:04 10° NNE
Cosmos 1743 3.6 06:15:22 10° NNW 06:18:47 29° W 06:22:10 10° SSW
ATLAS CENTAUR R/B 3.6 06:16:16 10° S 06:19:27 24° ESE 06:22:32 10° ENE
Cosmos 304 Rocket 3.8 06:17:44 10° NNW 06:22:36 88° ENE 06:27:25 10° SSE
CZ-4B R/B 4.2 06:20:51 10° NNW 06:23:56 21° WNW 06:26:42 11° WSW
Cosmos 2263 Rocket 3.4 06:21:58 12° W 06:25:56 24° NW 06:30:33 10° N
Atlas Centaur 2 3.7 06:22:51 10° SW 06:26:49 19° SSW 06:30:16 10° SSE
USA 215 3.5 06:23:43 10° ESE 06:30:14 74° NE 06:36:45 10° NW
Meteor PRIRODA 4.5 06:31:31 10° N 06:34:47 31° WNW 06:38:05 10° SW
Cosmos 724 4.4 06:30:07 10° SSW 06:36:14 86° WNW 06:42:17 10° NNE
Cosmos 1455 Rocket 4.3 06:33:16 10° NW 06:36:22 20° W 06:39:28 10° SW
Meteor 1-28 Rocket 3.3 06:35:30 10° S 06:39:08 51° W 06:42:48 10° NNW
Meteor 1-4 Rocket 3.9 06:36:55 10° NW 06:39:24 19° W 06:41:52 10° SW
CZ-4B R/B 4.5 06:38:48 10° N 06:42:21 34° WNW 06:46:01 10° SW
Cosmos 841 Rocket 3.6 06:38:17 10° NNW 06:43:22 56° WSW 06:48:28 10° S
Feng Yun 1-1 Rocket 4.2 06:40:18 10° N 06:45:41 73° WNW 06:51:06 10° SSW
NOSS 3-2 (A) 3.7 06:40:41 10° SSW 06:46:38 80° ESE 06:53:14 10° NE
